This is the latest recevied weather packets stored in our database for station/object DH5DY-6. If no packets are shown the sender has not sent any weather packets the latest 1 day(s).
| Time | Temp. | Humidity | Pressure | Rain* | Wind** | Luminosity | Snow |
|---|---|---|---|---|---|---|---|
| 1777988319 | 17.22° C | 70% | 1005.6 hPa | 0 mm | 1.34 m/s, 319° | 359 W/m² | - |
| 1777987718 | 16.67° C | 71% | 1005.7 hPa | 0 mm | 0.89 m/s, 360° | 204 W/m² | - |
| 1777987118 | 16.67° C | 74% | 1005.8 hPa | 0 mm | 0.45 m/s, 360° | 230 W/m² | - |
| 1777986518 | 16.67° C | 77% | 1005.9 hPa | 0 mm | 0 m/s | 163 W/m² | - |
| 1777985917 | 16.67° C | 72% | 1005.9 hPa | 0 mm | 0.89 m/s, 360° | 104 W/m² | - |
| 1777985318 | 16.67° C | 72% | 1006.1 hPa | 0 mm | 0.45 m/s, 360° | 105 W/m² | - |
| 1777984117 | 17.22° C | 71% | 1006.2 hPa | 0 mm | 0.89 m/s, 360° | 86 W/m² | - |
| 1777983517 | 17.22° C | 72% | 1006.3 hPa | 0 mm | 0.45 m/s, 360° | 109 W/m² | - |
| 1777982917 | 17.22° C | 73% | 1006.3 hPa | 0 mm | 0.45 m/s, 277° | 160 W/m² | - |
| 1777982317 | 17.22° C | 73% | 1006.4 hPa | 0 mm | 0.45 m/s, 239° | 274 W/m² | - |
| 1777981717 | 16.67° C | 70% | 1006.4 hPa | 0 mm | 0.89 m/s, 240° | 332 W/m² | - |
| 1777981117 | 17.22° C | 70% | 1006.6 hPa | 0 mm | 0.45 m/s, 240° | 272 W/m² | - |
| 1777980517 | 17.22° C | 71% | 1006.7 hPa | 0 mm | 0 m/s | 390 W/m² | - |
| 1777979916 | 16.67° C | 73% | 1006.9 hPa | 0 mm | 0.45 m/s, 348° | 476 W/m² | - |
| 1777979318 | 16.67° C | 78% | 1006.9 hPa | 0 mm | 1.34 m/s, 51° | 497 W/m² | - |
| 1777978716 | 16.11° C | 76% | 1007 hPa | 0 mm | 0.45 m/s, 88° | 350 W/m² | - |
| 1777978117 | 16.11° C | 80% | 1007.1 hPa | 0 mm | 0.45 m/s, 281° | 359 W/m² | - |
| 1777977517 | 15.56° C | 81% | 1007.2 hPa | 0 mm | 0.89 m/s, 360° | 318 W/m² | - |
| 1777976916 | 15.56° C | 83% | 1007.3 hPa | 0 mm | 0.45 m/s, 360° | 183 W/m² | - |
| 1777976405 | 15.56° C | 81% | 1007.2 hPa | 0 mm | 0.89 m/s, 360° | 123 W/m² | - |
| 1777976316 | 15.56° C | 81% | 1007.2 hPa | 0 mm | 0.89 m/s, 360° | 123 W/m² | - |
| 1777975116 | 15.56° C | 78% | 1007.3 hPa | 0 mm | 0.89 m/s, 360° | 153 W/m² | - |
| 1777974518 | 15.56° C | 79% | 1007.4 hPa | 0 mm | 0 m/s | 199 W/m² | - |
| 1777973917 | 15° C | 80% | 1007.3 hPa | 0 mm | 0.45 m/s, 133° | 204 W/m² | - |
| 1777973316 | 15° C | 85% | 1007.5 hPa | 0 mm | 0 m/s | 269 W/m² | - |
* Rain latest hour (hover to see other rain measurements)
** Current wind speed in m/s (hover to see current wind gust speed)